Location: �bnet
(46.9957°N, 8.4908°E)
Time: 09:32:00
(UTC+00:00)

BREEZE-M DEB (TANK) - Pass Details

Date: 11 May 2021
Orbit: 293 x 15376 km, 49.4° (Epoch: 13 June)

Event Time Altitude Azimuth Distance (km) Brightness Sun altitude
Rises 20:15:32 0° 297° (WNW) 6,920 9.9 -12.5°
Reaches altitude 10° 20:22:11 10° 292° (WNW) 4,093 8.3 -13.3°
Maximum altitude 20:29:26 33° 231° (SW) 1,168 4.5 -14.2°
Enters shadow 20:31:21 19° 177° (S) 1,268 4.2 -14.4°
